Time,TemperatureF,DewpointF,PressureIn,WindDirection,WindDirectionDegrees,WindSpeedMPH,WindSpeedGustMPH,Humidity,HourlyPrecipIn,Conditions,Clouds,dailyrainin,SoftwareType,DateUTC
2013-12-14 00:00:00,7.8,3.0,30.35,NNE,13,0.0,0.0,81,0.00,,,0.00,weatherlink.com 1.10,2013-12-14 06:00:00,
2013-12-14 00:15:00,7.8,3.0,30.35,NNE,13,0.0,0.0,81,0.00,,,0.00,weatherlink.com 1.10,2013-12-14 06:15:00,
2013-12-14 00:30:00,7.8,3.0,30.34,NNE,13,0.0,0.0,82,0.00,,,0.00,weatherlink.com 1.10,2013-12-14 06:30:00,
2013-12-14 00:45:00,7.8,3.0,30.34,NNE,13,0.0,0.0,82,0.00,,,0.00,weatherlink.com 1.10,2013-12-14 06:45:00,
2013-12-14 01:00:00,7.8,3.0,30.33,NNE,13,0.0,0.0,82,0.00,,,0.00,weatherlink.com 1.10,2013-12-14 07:00:00,
2013-12-14 01:15:00,8.0,4.0,30.33,NNE,13,0.0,0.0,82,0.00,,,0.00,weatherlink.com 1.10,2013-12-14 07:15:00,
2013-12-14 01:30:00,8.0,4.0,30.32,NNE,13,0.0,0.0,82,0.00,,,0.00,weatherlink.com 1.10,2013-12-14 07:30:00,
2013-12-14 01:45:00,8.1,4.0,30.32,NNE,13,0.0,0.0,82,0.00,,,0.00,weatherlink.com 1.10,2013-12-14 07:45:00,
2013-12-14 02:00:00,8.1,4.0,30.31,NNE,13,0.0,0.0,82,0.00,,,0.00,weatherlink.com 1.10,2013-12-14 08:00:00,
2013-12-14 02:15:00,8.2,4.0,30.32,NNE,13,0.0,0.0,82,0.00,,,0.00,weatherlink.com 1.10,2013-12-14 08:15:00,
2013-12-14 02:30:00,8.2,4.0,30.32,NNE,13,0.0,0.0,82,0.00,,,0.00,weatherlink.com 1.10,2013-12-14 08:30:00,
2013-12-14 02:45:00,8.2,4.0,30.32,NNE,13,0.0,0.0,82,0.00,,,0.00,weatherlink.com 1.10,2013-12-14 08:45:00,
2013-12-14 03:00:00,8.2,4.0,30.31,NNE,13,0.0,0.0,82,0.00,,,0.00,weatherlink.com 1.10,2013-12-14 09:00:00,
2013-12-14 03:15:00,8.2,4.0,30.31,NNE,13,0.0,0.0,82,0.00,,,0.00,weatherlink.com 1.10,2013-12-14 09:15:00,
2013-12-14 03:30:00,8.2,4.0,30.31,NNE,13,0.0,0.0,82,0.00,,,0.00,weatherlink.com 1.10,2013-12-14 09:30:00,
2013-12-14 03:45:00,8.2,4.0,30.30,NNE,13,0.0,0.0,82,0.00,,,0.00,weatherlink.com 1.10,2013-12-14 09:45:00,
2013-12-14 04:00:00,8.2,4.0,30.30,NNE,13,0.0,0.0,82,0.00,,,0.00,weatherlink.com 1.10,2013-12-14 10:00:00,
2013-12-14 04:15:00,8.1,4.0,30.30,NNE,13,0.0,0.0,82,0.00,,,0.00,weatherlink.com 1.10,2013-12-14 10:15:00,
2013-12-14 04:30:00,8.0,4.0,30.30,NNE,13,0.0,0.0,82,0.00,,,0.00,weatherlink.com 1.10,2013-12-14 10:30:00,
2013-12-14 04:45:00,7.9,4.0,30.30,NNE,13,0.0,0.0,82,0.00,,,0.00,weatherlink.com 1.10,2013-12-14 10:45:00,
2013-12-14 05:00:00,7.9,4.0,30.29,NNE,13,0.0,0.0,82,0.00,,,0.00,weatherlink.com 1.10,2013-12-14 11:00:00,
2013-12-14 05:15:00,7.9,4.0,30.29,NNE,13,0.0,0.0,82,0.00,,,0.00,weatherlink.com 1.10,2013-12-14 11:15:00,
2013-12-14 05:30:00,8.0,4.0,30.29,NNE,13,0.0,0.0,82,0.00,,,0.00,weatherlink.com 1.10,2013-12-14 11:30:00,
2013-12-14 05:45:00,7.9,4.0,30.29,NNE,13,0.0,0.0,82,0.00,,,0.00,weatherlink.com 1.10,2013-12-14 11:45:00,
2013-12-14 06:01:00,7.8,3.0,30.30,NNE,13,0.0,0.0,82,0.00,,,0.00,weatherlink.com 1.10,2013-12-14 12:01:00,
2013-12-14 06:15:00,7.7,3.0,30.30,NNE,13,0.0,0.0,82,0.00,,,0.00,weatherlink.com 1.10,2013-12-14 12:15:00,
2013-12-14 06:30:00,7.6,3.0,30.30,NNE,13,0.0,0.0,82,0.00,,,0.00,weatherlink.com 1.10,2013-12-14 12:30:00,
2013-12-14 06:45:00,7.6,3.0,30.29,NNE,13,0.0,0.0,82,0.00,,,0.00,weatherlink.com 1.10,2013-12-14 12:45:00,
2013-12-14 07:00:00,7.5,3.0,30.29,NNE,13,0.0,0.0,82,0.00,,,0.00,weatherlink.com 1.10,2013-12-14 13:00:00,
2013-12-14 07:15:00,7.4,3.0,30.30,NNE,13,0.0,0.0,82,0.00,,,0.00,weatherlink.com 1.10,2013-12-14 13:15:00,
2013-12-14 07:30:00,7.3,3.0,30.30,NNE,13,0.0,0.0,82,0.00,,,0.00,weatherlink.com 1.10,2013-12-14 13:30:00,
2013-12-14 07:45:00,7.3,3.0,30.30,NNE,13,0.0,0.0,82,0.00,,,0.00,weatherlink.com 1.10,2013-12-14 13:45:00,
2013-12-14 08:00:00,7.4,3.0,30.30,NNE,13,0.0,0.0,82,0.00,,,0.00,weatherlink.com 1.10,2013-12-14 14:00:00,
2013-12-14 08:15:00,7.4,3.0,30.30,NNE,13,0.0,0.0,82,0.00,,,0.00,weatherlink.com 1.10,2013-12-14 14:15:00,
2013-12-14 08:30:00,7.7,3.0,30.29,NNE,13,0.0,0.0,82,0.00,,,0.00,weatherlink.com 1.10,2013-12-14 14:30:00,
2013-12-14 08:45:00,8.0,3.0,30.29,NNE,13,0.0,0.0,81,0.00,,,0.00,weatherlink.com 1.10,2013-12-14 14:45:00,
2013-12-14 09:00:00,8.2,4.0,30.29,NNE,13,0.0,0.0,81,0.00,,,0.00,weatherlink.com 1.10,2013-12-14 15:00:00,
2013-12-14 09:30:00,8.6,4.0,30.30,NNE,13,0.0,0.0,80,0.00,,,0.00,weatherlink.com 1.10,2013-12-14 15:30:00,
2013-12-14 09:45:00,8.5,4.0,30.29,NNE,13,0.0,0.0,80,0.00,,,0.00,weatherlink.com 1.10,2013-12-14 15:45:00,
2013-12-14 10:00:00,9.1,4.0,30.28,NNE,13,0.0,0.0,80,0.00,,,0.00,weatherlink.com 1.10,2013-12-14 16:00:00,
2013-12-14 10:16:00,10.3,5.0,30.28,NNE,13,0.0,0.0,78,0.00,,,0.00,weatherlink.com 1.10,2013-12-14 16:16:00,
2013-12-14 10:31:00,10.7,5.0,30.27,NNE,13,0.0,0.0,76,0.00,,,0.00,weatherlink.com 1.10,2013-12-14 16:31:00,
2013-12-14 10:46:00,10.6,4.0,30.27,NNE,13,0.0,0.0,76,0.00,,,0.00,weatherlink.com 1.10,2013-12-14 16:46:00,
2013-12-14 11:01:00,12.2,6.0,30.26,NNE,13,0.0,0.0,76,0.00,,,0.00,weatherlink.com 1.10,2013-12-14 17:01:00,
2013-12-14 11:16:00,13.5,6.0,30.24,NNE,13,0.0,0.0,72,0.00,,,0.00,weatherlink.com 1.10,2013-12-14 17:16:00,
2013-12-14 11:31:00,12.4,5.0,30.24,NNE,13,0.0,0.0,71,0.00,,,0.00,weatherlink.com 1.10,2013-12-14 17:31:00,
2013-12-14 11:46:00,12.1,5.0,30.24,NNE,13,0.0,0.0,73,0.00,,,0.00,weatherlink.com 1.10,2013-12-14 17:46:00,
2013-12-14 12:01:00,11.9,5.0,30.22,NNE,13,0.0,0.0,74,0.00,,,0.00,weatherlink.com 1.10,2013-12-14 18:01:00,
2013-12-14 12:16:00,12.1,5.0,30.22,NNE,13,0.0,0.0,74,0.00,,,0.00,weatherlink.com 1.10,2013-12-14 18:16:00,
2013-12-14 12:31:00,12.5,6.0,30.20,NNE,13,0.0,0.0,74,0.00,,,0.00,weatherlink.com 1.10,2013-12-14 18:31:00,
2013-12-14 12:46:00,12.5,6.0,30.19,NNE,13,0.0,0.0,74,0.00,,,0.00,weatherlink.com 1.10,2013-12-14 18:46:00,
2013-12-14 13:01:00,12.5,5.0,30.19,NNE,13,0.0,0.0,73,0.00,,,0.00,weatherlink.com 1.10,2013-12-14 19:01:00,
2013-12-14 13:16:00,12.6,6.0,30.18,NNE,13,0.0,0.0,73,0.00,,,0.00,weatherlink.com 1.10,2013-12-14 19:16:00,
2013-12-14 13:31:00,12.6,6.0,30.18,NNE,13,0.0,0.0,73,0.00,,,0.00,weatherlink.com 1.10,2013-12-14 19:31:00,
2013-12-14 13:46:00,12.1,5.0,30.17,NNE,13,0.0,0.0,72,0.00,,,0.00,weatherlink.com 1.10,2013-12-14 19:46:00,
2013-12-14 14:01:00,11.7,5.0,30.17,NNE,13,0.0,0.0,74,0.00,,,0.00,weatherlink.com 1.10,2013-12-14 20:01:00,
2013-12-14 14:16:00,11.5,5.0,30.17,NNE,13,0.0,0.0,74,0.00,,,0.00,weatherlink.com 1.10,2013-12-14 20:16:00,
2013-12-14 14:31:00,11.7,5.0,30.16,NNE,13,0.0,0.0,74,0.00,,,0.00,weatherlink.com 1.10,2013-12-14 20:31:00,
2013-12-14 14:46:00,11.6,5.0,30.16,NNE,13,0.0,0.0,75,0.00,,,0.00,weatherlink.com 1.10,2013-12-14 20:46:00,
2013-12-14 15:01:00,11.4,5.0,30.16,NNE,13,0.0,0.0,75,0.00,,,0.00,weatherlink.com 1.10,2013-12-14 21:01:00,
2013-12-14 15:16:00,11.3,5.0,30.16,NNE,13,0.0,0.0,75,0.00,,,0.00,weatherlink.com 1.10,2013-12-14 21:16:00,
2013-12-14 15:31:00,11.0,5.0,30.16,NNE,13,0.0,0.0,76,0.00,,,0.00,weatherlink.com 1.10,2013-12-14 21:31:00,
2013-12-14 15:46:00,10.5,4.0,30.16,NNE,13,0.0,0.0,76,0.00,,,0.00,weatherlink.com 1.10,2013-12-14 21:46:00,
2013-12-14 16:01:00,10.2,4.0,30.16,NNE,13,0.0,0.0,77,0.00,,,0.00,weatherlink.com 1.10,2013-12-14 22:01:00,
2013-12-14 16:16:00,9.9,4.0,30.16,NNE,13,0.0,0.0,78,0.00,,,0.00,weatherlink.com 1.10,2013-12-14 22:16:00,
2013-12-14 16:31:00,9.7,4.0,30.15,NNE,13,0.0,0.0,79,0.00,,,0.00,weatherlink.com 1.10,2013-12-14 22:31:00,
2013-12-14 16:46:00,9.6,4.0,30.16,NNE,13,0.0,0.0,79,0.00,,,0.00,weatherlink.com 1.10,2013-12-14 22:46:00,
2013-12-14 17:01:00,9.4,4.0,30.16,NNE,13,0.0,0.0,79,0.00,,,0.00,weatherlink.com 1.10,2013-12-14 23:01:00,
2013-12-14 17:16:00,9.1,4.0,30.16,NNE,13,0.0,0.0,80,0.00,,,0.00,weatherlink.com 1.10,2013-12-14 23:16:00,
2013-12-14 17:31:00,8.9,4.0,30.16,NNE,13,0.0,0.0,80,0.00,,,0.00,weatherlink.com 1.10,2013-12-14 23:31:00,
2013-12-14 17:46:00,8.7,3.0,30.15,NNE,13,0.0,0.0,79,0.00,,,0.00,weatherlink.com 1.10,2013-12-14 23:46:00,
2013-12-14 18:01:00,8.6,3.0,30.15,NNE,13,0.0,0.0,79,0.00,,,0.00,weatherlink.com 1.10,2013-12-15 00:01:00,
2013-12-14 18:16:00,7.9,2.0,30.16,NNE,13,0.0,0.0,76,0.00,,,0.00,weatherlink.com 1.10,2013-12-15 00:16:00,
2013-12-14 18:31:00,6.5,0.0,30.16,NNE,13,0.0,0.0,74,0.00,,,0.00,weatherlink.com 1.10,2013-12-15 00:31:00,
2013-12-14 18:46:00,5.5,-1.0,30.16,NNE,13,0.0,0.0,74,0.00,,,0.00,weatherlink.com 1.10,2013-12-15 00:46:00,
2013-12-14 19:01:00,4.9,-1.0,30.16,NNE,13,0.0,0.0,75,0.00,,,0.00,weatherlink.com 1.10,2013-12-15 01:01:00,
2013-12-14 19:17:00,4.5,-2.0,30.16,NNE,13,0.0,0.0,75,0.00,,,0.00,weatherlink.com 1.10,2013-12-15 01:17:00,
2013-12-14 19:32:00,4.0,-2.0,30.16,NNE,13,0.0,0.0,75,0.00,,,0.00,weatherlink.com 1.10,2013-12-15 01:32:00,
2013-12-14 19:47:00,3.3,-3.0,30.16,NNE,13,0.0,0.0,75,0.00,,,0.00,weatherlink.com 1.10,2013-12-15 01:47:00,
2013-12-14 20:02:00,2.8,-3.0,30.16,NNE,13,0.0,0.0,75,0.00,,,0.00,weatherlink.com 1.10,2013-12-15 02:02:00,
2013-12-14 20:17:00,2.3,-4.0,30.16,NNE,13,0.0,0.0,76,0.00,,,0.00,weatherlink.com 1.10,2013-12-15 02:17:00,
2013-12-14 20:32:00,1.7,-4.0,30.16,NNE,13,0.0,0.0,76,0.00,,,0.00,weatherlink.com 1.10,2013-12-15 02:32:00,
2013-12-14 20:47:00,1.3,-5.0,30.16,NNE,13,0.0,0.0,76,0.00,,,0.00,weatherlink.com 1.10,2013-12-15 02:47:00,
2013-12-14 21:02:00,1.2,-5.0,30.15,NNE,13,0.0,0.0,76,0.00,,,0.00,weatherlink.com 1.10,2013-12-15 03:02:00,
2013-12-14 21:17:00,1.2,-5.0,30.15,NNE,13,0.0,0.0,76,0.00,,,0.00,weatherlink.com 1.10,2013-12-15 03:17:00,
2013-12-14 21:32:00,1.1,-5.0,30.16,NNE,13,0.0,0.0,76,0.00,,,0.00,weatherlink.com 1.10,2013-12-15 03:32:00,
2013-12-14 21:47:00,0.8,-5.0,30.17,NNE,13,0.0,0.0,76,0.00,,,0.00,weatherlink.com 1.10,2013-12-15 03:47:00,
2013-12-14 22:02:00,0.3,-6.0,30.17,NNE,13,0.0,0.0,76,0.00,,,0.00,weatherlink.com 1.10,2013-12-15 04:02:00,
2013-12-14 22:17:00,-0.1,-6.0,30.16,NNE,13,0.0,0.0,76,0.00,,,0.00,weatherlink.com 1.10,2013-12-15 04:17:00,
2013-12-14 22:48:00,-1.0,-7.0,30.17,NNE,13,0.0,0.0,76,0.00,,,0.00,weatherlink.com 1.10,2013-12-15 04:48:00,
2013-12-14 23:03:00,-1.4,-8.0,30.18,NNE,13,0.0,0.0,75,0.00,,,0.00,weatherlink.com 1.10,2013-12-15 05:03:00,
2013-12-14 23:18:00,-1.7,-8.0,30.19,NNE,13,0.0,0.0,75,0.00,,,0.00,weatherlink.com 1.10,2013-12-15 05:18:00,
2013-12-14 23:33:00,-2.1,-8.0,30.19,NNE,13,0.0,0.0,75,0.00,,,0.00,weatherlink.com 1.10,2013-12-15 05:33:00,
2013-12-14 23:48:00,-2.5,-9.0,30.18,NNE,13,0.0,0.0,74,0.00,,,0.00,weatherlink.com 1.10,2013-12-15 05:48:00,